Location: Rockford
(42.2710°N, 89.0940°W)
Time: 15:48:29
(UTC-05:00)

SPOT 5 - Visible Passes

Search period start: 25 September 2016 00:00
Search period end: 05 October 2016 00:00
Orbit: 623 x 816 km, 98.4° (Epoch: 25 September)

Date Brightness Start Highest point End Pass type
(mag) Time Alt. Az. Time Alt. Az. Time Alt. Az.
25 Sep 4.9 20:26:41 10° NE 20:26:41 10° NE 20:26:46 10° NE visible
25 Sep 5.2 22:05:56 16° NNW 22:05:56 16° NNW 22:06:52 10° NNW visible
26 Sep 4.8 21:15:28 17° NNE 21:15:28 17° NNE 21:16:36 10° N visible
27 Sep 5.3 22:04:14 14° NNW 22:04:14 14° NNW 22:04:55 10° NNW visible
28 Sep 4.9 21:13:46 15° N 21:13:46 15° N 21:14:37 10° N visible
29 Sep 5.4 22:02:32 13° NNW 22:02:32 13° NNW 22:03:00 10° NNW visible
30 Sep 5.0 21:12:03 13° N 21:12:03 13° N 21:12:39 10° N visible
01 Oct 5.5 22:00:49 12° NNW 22:00:49 12° NNW 22:01:05 10° NNW visible
02 Oct 5.2 21:10:19 12° N 21:10:19 12° N 21:10:41 10° N visible
03 Oct 5.6 21:59:05 10° NNW 21:59:05 10° NNW 21:59:09 10° NNW visible
04 Oct 5.3 21:08:36 11° N 21:08:36 11° N 21:08:43 10° N visible
